Wind_Speed
36 38 39 40 43 45 46 47 48 48 52 53 52 51 49 47 45 45 45 44 44 43 40 39 39 40 43 44 43 41 41 43 43 45 48 50 51 52 53 52 51 50 48
40 40 40 41 43 44 46 48 49 51 51 54 56 55 54 53 51 48 48 47 47 47 46 46 44 43 42 44 48 46 47 47 47 45 49 51 52 53 54 54 53 52 50
46 46 46 46 46 46 47 48 49 50 52 53 56 58 58 58 57 55 53 51 50 50 50 50 50 50 49 47 48 49 52 53 52 52 50 53 54 54 56 56 56 54 52
50 52 52 51 49 49 50 50 51 52 52 53 55 58 60 61 61 60 59 57 56 54 53 53 53 54 54 54 54 53 52 54 57 57 56 55 57 57 58 59 59 59 57
53 54 55 56 56 55 53 52 52 52 53 54 55 57 59 61 62 63 63 62 61 60 60 59 58 57 58 59 59 59 59 59 58 57 58 60 61 62 62 62 63 63 63
55 56 56 55 57 59 59 59 58 57 55 55 55 55 57 59 61 63 64 65 65 65 64 64 64 64 63 63 63 63 64 64 64 64 63 63 62 63 64 66 67 68 68
60 60 60 60 60 59 58 57 58 59 61 60 60 59 59 58 59 61 63 63 64 66 67 67 67 68 68 68 68 68 68 68 68 69 69 69 69 69 69 68 67 68 69
62 63 63 63 62 63 62 62 64 62 59 59 61 62 62 62 63 62 62 62 62 62 63 64 65 67 69 71 71 71 71 71 72 73 73 74 75 75 75 74 74 73 72
59 59 60 60 61 63 64 65 66 65 65 68 67 65 62 63 64 64 65 65 65 65 65 65 65 65 65 67 69 70 71 72 73 74 75 76 77 78 79 80 78 79 77
61 60 60 59 58 58 58 59 60 61 63 66 69 69 69 69 69 67 66 67 68 68 68 68 68 69 69 69 70 70 69 70 70 71 72 74 76 77 77 80 81 82 82
66 64 62 61 61 61 60 60 60 60 60 60 61 63 65 67 69 70 71 73 73 72 72 72 73 73 74 74 74 74 75 75 74 74 74 74 74 75 75 76 77 79 80
69 66 65 64 62 61 62 62 62 61 62 62 62 62 63 63 64 64 64 66 69 72 74 74 74 74 76 78 79 80 80 81 80 80 79 79 79 79 79 78 79 79 78
69 69 68 66 66 66 64 63 61 61 61 61 62 63 64 66 67 67 68 68 69 70 71 71 73 73 73 75 77 78 80 82 84 84 85 85 85 85 85 85 84 84 83
58 60 62 63 63 63 63 63 62 61 61 61 62 63 64 65 66 68 70 71 72 73 74 76 77 78 78 79 79 80 82 82 83 83 84 86 87 87 88 89 89 88 89
35 37 40 42 45 48 50 51 53 54 55 56 57 59 60 62 63 65 67 69 71 73 75 77 79 81 82 83 83 83 85 86 87 88 88 88 88 88 88 89 89 90 91
10 8 8 10 13 15 19 24 29 33 35 38 39 42 44 47 50 54 57 60 64 66 69 72 75 77 80 82 84 86 87 88 90 91 92 92 92 93 93 93 93 92 91
1 3 7 11 12 14 16 19 21 23 26 29 33 36 38 40 42 44 46 47 48 50 52 54 57 61 66 71 77 82 84 87 90 92 94 95 96 97 97 97 96 97 96
8 11 14 17 18 18 20 21 23 25 27 29 31 33 35 37 39 41 42 44 45 47 48 48 49 50 52 56 58 60 62 65 68 73 81 89 94 98 100 101 101 102 100
13 15 16 19 22 23 22 23 24 27 30 32 35 36 38 40 42 44 45 46 47 48 50 50 51 51 52 52 53 53 55 59 60 59 59 60 63 72 80 89 96 100 104
18 19 21 24 28 29 29 29 29 30 31 32 34 36 38 41 44 46 49 52 53 53 54 55 57 59 60 61 61 60 60 60 59 59 60 60 61 61 60 59 66 76 82
23 23 26 30 34 35 35 33 32 31 31 33 36 39 43 46 48 51 53 55 57 59 60 62 63 64 66 67 68 69 69 68 66 65 64 63 62 61 62 62 59 57 58
26 28 31 35 37 35 31 28 28 30 34 37 40 43 47 50 53 56 58 59 60 62 63 63 64 64 65 66 67 68 69 70 71 72 71 68 66 65 63 62 62 62 60
28 32 35 37 35 29 25 27 31 34 37 40 43 46 49 53 56 58 56 55 54 53 52 52 52 52 53 54 55 56 58 60 62 63 65 68 69 69 68 65 62 61 59
32 34 36 33 27 25 29 32 35 37 40 42 45 48 51 55 57 56 54 51 50 49 50 50 49 49 49 50 51 51 50 50 51 54 57 58 61 65 67 67 64 61 58
32 33 31 29 28 29 31 33 36 40 43 46 48 49 51 54 57 57 54 51 49 48 48 49 49 48 47 47 48 48 48 48 50 50 49 52 56 56 58 61 63 62 60
32 33 32 32 30 33 35 37 40 43 46 49 50 51 53 54 58 60 56 53 51 49 48 47 47 47 46 45 44 44 45 46 47 47 49 49 50 53 53 53 55 58 59
Wind_Direction
260 261 262 261 259 257 256 255 255 254 251 250 251 252 252 254 256 257 254 252 252 251 250 251 252 252 249 248 248 247 245 245 242 240 243 246 247 249 251 253 255 258 261
257 256 256 258 259 260 259 258 256 256 256 253 251 252 253 254 254 255 257 257 254 254 253 251 251 252 252 251 250 250 249 248 246 241 244 247 251 253 255 256 258 259 262
259 258 257 256 256 256 258 260 260 258 257 257 255 253 253 253 254 255 255 256 258 257 255 255 255 253 252 252 252 251 250 251 250 249 246 248 250 253 257 259 260 261 262
256 258 259 259 258 258 257 256 257 259 260 258 257 257 255 254 255 256 256 256 256 257 258 258 257 257 256 256 254 254 254 253 252 252 251 249 251 252 255 258 261 262 262
258 256 257 259 260 259 259 259 258 258 259 260 260 259 258 257 257 257 258 258 258 258 258 259 260 260 259 259 258 257 256 256 256 256 255 254 253 252 253 254 258 260 263
260 260 259 259 260 261 261 260 259 259 259 260 260 260 260 260 259 259 259 260 260 260 260 260 260 260 260 260 261 261 260 259 259 258 258 258 258 258 256 255 255 257 260
263 262 262 261 260 261 263 263 262 261 260 259 259 260 261 261 260 260 259 259 260 261 261 261 261 261 261 261 261 260 260 261 261 261 260 260 260 260 260 260 260 259 259
267 266 264 263 263 263 263 263 263 265 265 264 262 261 259 259 260 260 260 259 259 259 259 260 261 261 262 262 261 261 261 261 261 261 262 262 262 262 262 262 262 262 261
267 267 268 267 266 265 264 264 264 262 263 264 266 266 265 264 261 259 259 259 259 258 259 259 259 260 260 261 261 261 261 262 261 260 260 261 261 262 264 264 265 265 265
269 268 268 269 269 268 267 266 265 264 264 264 264 264 266 267 266 265 263 261 260 258 258 258 257 258 258 259 260 260 260 260 261 262 262 262 262 262 262 263 263 264 265
270 269 268 268 268 268 268 268 268 267 266 265 264 264 262 262 262 263 264 265 265 263 262 260 260 260 260 259 259 259 259 260 260 261 261 262 262 263 263 264 264 264 265
270 270 269 269 269 268 268 269 269 268 267 266 266 265 265 265 264 263 262 262 262 261 262 263 262 261 261 261 261 260 259 259 258 258 259 261 261 262 262 263 264 265 265
271 271 271 270 270 271 271 270 269 269 268 267 266 266 265 265 264 264 264 263 264 264 263 263 262 262 262 263 263 263 262 261 261 260 259 258 258 260 261 262 262 263 264
277 276 274 274 274 273 273 273 273 272 271 270 270 269 268 267 267 266 265 265 265 264 264 264 264 264 263 263 263 264 264 264 264 263 262 261 260 259 259 260 260 261 262
269 268 268 269 270 270 270 271 271 270 269 268 267 267 266 266 267 267 267 267 267 266 266 265 265 265 265 264 264 263 263 264 264 264 263 263 263 262 261 261 260 260 260
232 217 227 250 263 270 270 267 265 263 261 261 262 263 263 265 265 266 266 267 266 266 264 265 264 264 263 264 264 264 264 263 263 263 263 263 262 262 262 262 262 262 261
163 310 319 319 305 293 285 280 278 278 275 273 272 272 271 273 274 273 273 272 272 271 271 270 270 269 269 268 266 264 262 262 261 261 261 261 261 262 261 261 261 260 260
283 309 322 325 321 309 300 296 292 288 285 282 280 280 279 279 278 278 278 278 279 278 277 276 275 274 273 273 273 273 272 270 268 266 264 263 261 260 259 260 260 260 259
296 304 316 323 322 318 313 306 299 294 291 290 289 288 287 285 284 283 282 281 280 280 280 280 280 280 280 280 278 276 275 273 272 272 273 272 269 266 264 263 262 260 260
291 297 312 318 318 316 314 311 307 303 300 299 299 299 298 296 294 291 288 287 285 284 282 281 279 278 278 278 278 278 278 277 275 274 272 273 271 271 272 272 270 266 264
290 302 311 313 315 315 313 312 311 310 309 309 308 306 305 303 301 299 297 295 293 291 289 287 285 283 281 279 277 276 274 274 272 272 272 272 272 271 271 270 271 273 274
293 302 308 311 312 311 310 310 312 313 313 313 314 315 314 312 311 310 307 304 301 298 295 293 292 291 288 285 282 280 277 275 272 270 269 268 269 270 270 269 268 269 271
294 302 307 311 309 307 308 312 315 316 316 316 317 317 317 318 320 319 315 309 305 302 300 298 296 295 294 293 290 286 281 277 276 273 270 265 264 264 265 266 268 267 268
294 302 307 306 302 304 309 312 313 315 317 319 320 320 320 322 323 319 314 310 306 304 302 301 300 298 297 296 294 293 291 288 285 278 274 271 266 261 261 261 262 265 265
296 303 303 299 295 301 306 310 314 318 319 318 319 318 320 324 323 321 316 311 307 305 303 302 301 299 298 297 296 295 294 292 289 287 286 279 270 269 264 259 257 259 261
292 299 294 294 291 299 303 307 312 315 318 317 316 317 318 320 323 322 318 312 308 305 303 301 300 299 298 298 298 299 298 295 293 291 288 287 283 271 269 266 261 258 258
Height
5759 5759 5758 5759 5759 5760 5760 5762 5763 5765 5766 5768 5770 5773 5775 5777 5779 5781 5782 5784 5785 5787 5788 5789 5790 5790 5792 5793 5795 5796 5797 5799 5804 5808 5809 5810 5812 5813 5814 5816 5817 5819 5820
5749 5749 5748 5748 5748 5748 5749 5749 5751 5752 5754 5756 5758 5760 5762 5764 5766 5769 5771 5773 5774 5775 5777 5779 5779 5780 5781 5782 5784 5785 5787 5789 5791 5796 5797 5798 5799 5800 5801 5803 5805 5806 5808
5739 5738 5737 5737 5737 5737 5738 5738 5738 5739 5741 5742 5744 5746 5748 5750 5753 5755 5757 5760 5762 5763 5764 5766 5767 5769 5770 5771 5771 5773 5775 5777 5779 5782 5787 5786 5787 5787 5787 5788 5789 5792 5794
5725 5725 5725 5725 5725 5724 5725 5725 5726 5727 5728 5729 5730 5731 5733 5735 5738 5740 5743 5745 5747 5749 5751 5752 5754 5755 5757 5758 5759 5760 5762 5763 5765 5767 5772 5774 5775 5775 5775 5775 5774 5775 5777
5709 5709 5710 5710 5710 5711 5711 5712 5713 5714 5714 5715 5716 5717 5718 5720 5722 5724 5726 5729 5731 5733 5735 5737 5739 5740 5742 5743 5745 5746 5747 5749 5751 5752 5755 5757 5760 5760 5762 5762 5760 5760 5761
5693 5693 5693 5693 5694 5695 5696 5697 5698 5699 5700 5700 5701 5702 5703 5704 5706 5708 5710 5712 5714 5716 5718 5720 5722 5723 5725 5727 5728 5730 5732 5734 5735 5736 5738 5739 5742 5743 5743 5745 5746 5746 5747
5676 5677 5677 5677 5678 5678 5679 5680 5682 5683 5684 5685 5686 5687 5688 5688 5689 5691 5693 5696 5698 5699 5701 5702 5704 5705 5706 5709 5711 5713 5715 5716 5718 5718 5721 5722 5722 5723 5724 5727 5728 5730 5731
5657 5658 5659 5659 5660 5661 5661 5663 5664 5665 5666 5667 5668 5669 5670 5671 5672 5673 5676 5678 5680 5681 5683 5684 5685 5687 5687 5689 5692 5694 5696 5697 5698 5699 5701 5702 5703 5704 5703 5705 5706 5709 5712
5640 5640 5640 5640 5641 5642 5643 5644 5645 5646 5647 5648 5649 5650 5651 5652 5653 5655 5658 5659 5661 5663 5664 5666 5668 5669 5669 5669 5671 5674 5675 5676 5677 5677 5680 5682 5683 5683 5683 5683 5687 5686 5691
5621 5622 5622 5622 5623 5624 5625 5625 5626 5626 5627 5629 5630 5630 5631 5632 5634 5636 5637 5639 5641 5643 5645 5645 5646 5647 5649 5650 5651 5652 5655 5656 5656 5658 5660 5661 5660 5662 5662 5661 5662 5664 5666
5599 5601 5603 5604 5605 5605 5606 5607 5608 5609 5609 5609 5610 5610 5611 5612 5613 5615 5616 5617 5619 5622 5623 5625 5626 5627 5628 5629 5630 5631 5633 5634 5636 5637 5638 5638 5638 5639 5640 5640 5640 5642 5644
5579 5580 5582 5583 5585 5586 5587 5587 5588 5589 5590 5591 5591 5591 5591 5592 5593 5595 5595 5595 5596 5598 5600 5602 5604 5604 5603 5605 5606 5607 5609 5610 5612 5614 5616 5616 5616 5617 5617 5618 5618 5619 5621
5560 5559 5561 5562 5563 5564 5565 5567 5568 5569 5569 5570 5571 5571 5572 5572 5573 5574 5574 5575 5576 5576 5576 5578 5578 5580 5582 5581 5581 5582 5583 5584 5586 5588 5591 5593 5593 5594 5594 5595 5596 5596 5598
5540 5541 5542 5542 5543 5543 5545 5546 5547 5548 5549 5549 5550 5550 5550 5550 5551 5552 5552 5552 5552 5553 5554 5553 5554 5556 5557 5557 5558 5558 5557 5557 5559 5560 5562 5564 5566 5568 5569 5569 5570 5571 5573
5525 5524 5524 5524 5524 5525 5525 5526 5527 5528 5529 5529 5529 5530 5529 5528 5529 5529 5529 5529 5528 5528 5529 5529 5529 5529 5530 5530 5532 5533 5532 5531 5531 5533 5535 5536 5537 5538 5540 5541 5542 5545 5547
5516 5515 5514 5515 5515 5514 5513 5513 5512 5513 5513 5512 5512 5511 5510 5509 5508 5508 5508 5507 5506 5505 5504 5504 5503 5503 5503 5503 5503 5504 5504 5504 5504 5505 5506 5507 5509 5509 5511 5512 5513 5515 5518
5514 5513 5512 5511 5509 5508 5506 5505 5504 5502 5501 5500 5500 5499 5498 5496 5494 5492 5491 5490 5488 5487 5484 5483 5481 5480 5478 5476 5476 5476 5476 5474 5474 5475 5476 5476 5477 5479 5480 5482 5483 5484 5488
5511 5510 5508 5506 5504 5502 5500 5498 5496 5494 5491 5490 5488 5486 5485 5483 5481 5479 5477 5474 5472 5469 5468 5466 5464 5462 5460 5457 5455 5452 5450 5448 5447 5446 5446 5445 5445 5447 5449 5449 5451 5451 5455
5507 5505 5503 5501 5499 5496 5494 5491 5488 5485 5482 5479 5476 5474 5471 5469 5467 5464 5462 5459 5457 5454 5451 5448 5445 5442 5440 5438 5436 5434 5431 5428 5426 5425 5423 5421 5419 5418 5418 5418 5418 5420 5420
5501 5499 5497 5495 5492 5489 5485 5482 5479 5476 5472 5469 5466 5462 5458 5454 5450 5447 5444 5440 5437 5435 5431 5429 5426 5423 5421 5418 5416 5413 5411 5408 5406 5404 5402 5401 5399 5397 5396 5395 5393 5391 5391
5495 5493 5490 5487 5484 5480 5476 5472 5469 5465 5462 5458 5453 5449 5444 5440 5436 5431 5427 5422 5418 5414 5411 5407 5403 5400 5398 5395 5392 5390 5388 5386 5384 5382 5380 5379 5377 5376 5374 5374 5373 5371 5369
5488 5485 5482 5478 5475 5471 5467 5463 5460 5456 5452 5447 5443 5438 5432 5427 5421 5415 5410 5404 5399 5394 5389 5385 5380 5376 5372 5370 5367 5364 5362 5359 5358 5357 5357 5356 5355 5354 5353 5353 5352 5351 5351
5480 5478 5474 5470 5465 5462 5459 5456 5452 5448 5443 5438 5433 5428 5422 5416 5409 5402 5395 5388 5382 5376 5371 5366 5361 5356 5351 5347 5342 5339 5337 5334 5332 5330 5330 5330 5330 5329 5330 5331 5330 5331 5331
5472 5469 5465 5461 5457 5454 5451 5447 5443 5438 5433 5428 5422 5416 5410 5403 5396 5389 5382 5376 5369 5362 5355 5350 5346 5341 5337 5331 5326 5320 5316 5313 5310 5307 5306 5305 5304 5304 5305 5307 5308 5309 5310
5463 5459 5456 5452 5449 5446 5442 5438 5433 5428 5423 5417 5411 5405 5398 5391 5384 5377 5369 5362 5355 5349 5343 5336 5330 5325 5320 5315 5310 5305 5300 5296 5291 5288 5286 5283 5282 5281 5281 5282 5285 5288 5289
5453 5450 5447 5443 5440 5437 5433 5428 5423 5417 5412 5406 5400 5393 5386 5379 5372 5364 5356 5348 5341 5335 5329 5323 5316 5310 5306 5302 5296 5291 5286 5281 5276 5272 5267 5265 5262 5261 5260 5260 5262 5265 5268